SCP
4 3 3 3 3 3 2 2 2 2 2 1 1 1 1 1 1 1 1 1 1 1 1 1 1 1 1 1 1 1 1 1 1 1 1 1 2 2 2 1 1 1 1
4 3 3 3 2 2 2 2 2 2 1 1 1 1 1 1 1 1 1 1 1 1 1 1 1 1 1 1 1 1 1 1 1 1 1 1 2 2 2 1 1 1 1
3 2 2 2 2 1 1 1 1 1 1 1 1 1 1 1 2 1 1 1 1 1 1 1 1 1 1 1 1 1 1 1 1 1 1 1 1 2 2 1 1 1 1
2 2 2 2 2 1 1 1 1 1 1 1 1 1 1 1 2 1 1 1 1 1 1 1 1 1 1 1 1 1 1 1 1 1 1 1 1 1 2 1 1 1 1
3 3 2 2 2 2 1 1 1 1 2 1 1 1 1 1 1 1 1 1 1 1 1 1 1 1 1 1 1 1 1 1 1 1 1 1 1 2 2 1 1 1 1
4 3 3 2 2 2 2 2 2 2 1 1 1 1 1 1 1 1 1 1 1 1 1 1 1 1 1 1 1 1 1 1 1 1 1 1 1 2 2 1 1 1 1
4 3 3 3 3 2 2 2 2 2 1 1 1 1 1 1 1 1 1 1 1 1 1 1 1 1 1 1 1 1 1 1 1 1 1 1 1 2 3 2 1 1 1
4 4 3 3 3 3 3 3 2 2 2 2 2 1 1 1 1 1 1 1 1 1 1 1 1 1 2 2 2 2 2 1 1 1 1 1 2 3 3 2 2 1 1
5 4 4 4 4 4 5 4 3 3 2 2 2 2 1 1 1 1 1 1 1 1 2 2 2 2 2 2 2 2 2 2 1 1 1 1 2 3 2 2 2 2 2
6 6 5 5 5 5 5 4 3 3 2 2 2 1 1 1 1 1 1 1 1 2 2 2 2 2 2 2 2 2 2 2 1 1 1 2 3 4 3 2 2 2 2
9 8 6 5 5 4 3 3 3 2 2 1 1 1 1 1 1 1 1 1 2 2 2 2 2 2 2 2 2 1 1 1 1 1 2 3 4 4 3 2 2 2 2
9 7 6 6 6 4 3 3 3 3 2 2 1 1 1 1 1 1 1 2 2 2 2 2 2 2 1 1 1 1 1 1 1 1 3 4 5 5 4 2 1 1 1
6 5 4 5 6 5 4 4 4 4 3 2 2 1 1 2 2 2 2 2 2 2 2 2 2 2 1 1 1 1 1 1 1 1 3 5 6 5 4 2 1 1 1
4 3 4 5 6 6 6 5 5 5 4 3 2 2 2 1 2 2 2 2 2 2 2 2 2 2 1 1 1 1 1 1 1 2 3 4 4 3 3 2 1 1 1
3 3 4 5 6 6 6 5 5 5 5 4 4 3 2 2 2 2 2 2 2 2 3 3 3 3 2 2 2 1 1 1 2 2 2 2 2 2 2 2 1 1 1
4 4 5 6 7 7 6 5 5 5 5 5 5 4 3 2 2 3 3 3 3 3 4 5 5 4 4 3 3 3 2 2 2 2 2 2 2 2 2 2 2 1 2
6 6 7 7 7 8 7 6 5 5 5 5 5 5 4 3 3 4 4 4 4 5 5 6 6 7 6 5 4 3 3 3 3 3 3 2 2 2 2 2 3 3 3
8 9 8 8 9 10 9 6 5 4 4 4 4 4 4 4 4 5 5 5 5 6 6 6 7 9 8 6 4 4 3 3 3 3 3 2 2 2 2 3 4 4 5
11 11 10 10 11 12 10 8 6 6 5 5 5 5 5 5 6 6 6 6 6 6 6 7 9 10 8 6 5 4 3 3 3 3 3 3 3 3 3 3 4 4 4
14 14 13 13 15 14 12 9 8 8 8 8 7 6 6 6 8 8 7 6 6 6 6 8 10 9 7 6 6 5 4 4 3 3 3 3 3 3 3 3 3 3 3
17 16 15 16 17 17 14 11 10 10 11 10 9 8 8 8 9 9 8 7 7 7 7 9 10 9 7 8 8 7 6 4 4 4 4 3 3 3 3 3 3 3 3
17 17 16 17 18 18 16 12 11 11 11 10 9 9 9 10 11 11 9 7 7 8 8 9 9 8 8 9 10 10 7 5 4 4 4 3 3 2 2 2 3 3 4
13 15 16 17 18 18 16 12 10 10 10 9 9 9 11 11 12 12 10 9 8 8 9 9 9 9 10 11 12 11 9 6 4 3 3 3 3 3 3 2 3 4 5
11 13 16 18 18 17 15 11 9 10 9 9 9 10 11 12 13 12 11 10 9 9 9 9 9 10 11 13 14 12 11 8 5 3 2 2 3 4 4 4 4 5 6
12 15 17 18 18 16 14 12 10 10 10 10 10 10 12 12 12 13 12 12 11 10 10 9 10 10 12 14 14 13 10 7 5 4 2 2 3 4 6 5 5 5 5
15 18 19 18 17 15 14 12 10 10 10 10 10 11 12 12 12 13 13 13 13 12 10 10 10 11 12 14 15 13 9 6 4 4 3 2 3 5 6 6 5 4 5
Wind_Speed
14 16 16 14 12 10 10 10 10 10 10 10 10 10 9 9 10 10 10 10 10 9 10 9 9 9 9 9 10 10 11 10 10 11 11 11 11 11 10 11 10 10 14
17 16 16 14 12 11 10 10 10 10 10 10 9 9 9 9 9 9 9 9 9 9 9 9 9 9 9 9 9 9 9 9 9 10 11 10 11 10 10 10 10 8 12
17 15 15 13 13 11 10 10 10 10 10 10 9 9 9 9 8 8 8 8 8 8 8 8 8 8 8 8 7 8 8 8 8 9 9 6 8 10 10 11 11 11 11
17 14 14 14 13 11 10 10 10 10 10 10 10 9 8 8 8 7 8 8 8 8 7 7 7 7 7 7 6 7 7 7 7 7 5 5 6 10 10 10 10 9 10
16 15 15 15 13 12 11 10 9 9 10 10 9 9 8 8 7 7 6 7 7 7 7 7 6 6 7 6 6 5 6 5 5 4 4 6 6 10 10 10 9 8 9
16 17 16 15 14 12 11 10 9 9 9 9 9 8 8 7 7 6 6 6 7 7 7 6 6 6 6 5 5 4 4 4 4 3 4 6 7 11 11 10 9 8 8
16 16 16 15 14 12 11 10 10 9 9 9 9 8 7 6 6 6 6 6 6 6 6 5 6 6 5 5 4 4 4 4 4 3 5 6 7 12 11 10 9 8 7
16 17 15 15 14 13 12 11 10 9 9 8 8 8 7 6 6 6 6 6 5 5 5 5 5 5 4 4 3 3 3 4 4 4 6 6 9 11 10 10 9 8 7
15 15 14 14 12 13 12 11 11 10 9 9 8 8 7 7 6 6 7 6 5 5 5 5 5 4 4 3 3 4 5 5 3 2 5 6 10 11 10 9 9 8 7
13 13 13 13 13 12 11 12 11 10 10 9 9 8 8 8 7 8 7 6 6 6 5 5 4 4 4 4 5 5 5 5 3 2 4 7 12 11 10 9 9 8 7
10 11 11 12 11 11 11 12 11 11 10 9 8 9 8 6 6 7 7 8 7 6 6 5 5 5 5 6 7 7 6 3 3 3 4 9 11 11 10 9 9 8 8
10 11 10 10 10 9 8 9 7 8 8 7 6 7 6 4 3 5 8 9 8 7 6 7 7 6 6 4 6 8 4 5 3 3 5 12 11 11 10 9 9 9 8
9 8 10 9 8 8 6 7 5 4 6 6 6 5 4 3 3 4 4 5 5 7 5 6 6 5 4 3 2 4 4 3 2 3 7 12 11 11 10 9 9 9 9
10 9 9 10 8 6 6 5 4 4 5 4 5 5 4 2 2 2 2 4 4 3 3 3 3 3 2 2 2 2 2 2 2 3 6 12 10 10 10 10 9 9 10
10 9 8 8 7 5 5 3 5 4 5 5 5 5 4 3 2 2 2 2 3 2 3 2 2 1 1 1 2 2 1 1 2 3 5 11 11 11 10 10 10 9 10
7 8 7 7 8 6 4 3 3 3 4 4 4 5 4 3 3 2 2 2 2 1 1 2 2 1 1 1 1 2 2 1 1 3 4 7 11 11 10 10 10 10 10
8 7 6 6 8 7 6 5 4 3 4 4 4 5 5 3 3 2 2 2 2 1 1 1 2 1 2 2 2 2 2 1 1 2 3 4 6 10 11 11 11 10 10
9 8 7 7 8 6 5 4 4 4 4 3 4 4 5 5 4 3 2 3 2 1 1 1 2 2 2 2 2 2 2 1 1 2 2 3 4 5 8 11 11 11 11
9 8 7 6 7 7 5 4 4 3 3 3 4 4 5 5 4 3 3 2 3 2 2 3 2 1 2 2 2 3 2 2 2 3 3 3 3 3 4 9 12 12 12
8 8 7 6 6 6 4 3 2 3 3 3 3 4 5 4 5 4 3 3 3 2 2 2 1 2 2 2 4 3 2 2 2 3 4 3 3 4 5 5 6 8 13
8 8 8 7 6 5 4 4 4 4 4 3 3 5 5 4 4 4 2 3 3 2 2 3 2 3 3 2 2 2 2 3 3 3 3 3 4 4 4 5 5 4 6
9 8 8 7 7 6 4 3 3 3 3 3 3 4 5 5 4 4 3 3 3 2 2 2 2 2 2 2 1 1 1 1 3 5 3 4 4 3 4 6 5 5 4
8 8 8 8 8 7 5 3 3 2 2 3 4 4 5 4 4 3 4 3 3 3 2 2 3 3 2 2 2 1 1 1 1 1 3 3 4 3 4 4 5 5 5
7 7 7 7 8 7 6 5 6 5 4 4 3 4 5 5 5 5 4 4 3 2 3 4 3 2 3 2 2 2 2 1 0 1 2 2 3 4 4 4 5 5 5
7 6 6 7 7 7 7 6 5 5 4 3 3 4 5 5 5 5 4 4 4 3 3 3 2 2 2 3 2 2 2 2 2 2 2 1 1 2 3 4 3 3 4
7 6 5 6 6 7 7 7 6 6 5 4 4 4 4 4 4 4 4 3 3 3 3 3 2 3 3 3 2 2 2 2 2 2 2 2 2 2 3 3 3 3 4
Wind_Direction
114 121 123 119 118 115 113 112 110 109 110 107 103 100 98 95 94 94 95 96 99 100 97 94 96 100 101 101 100 105 107 109 116 116 115 115 111 107 105 108 115 110 115
118 123 123 121 120 119 117 116 116 114 115 113 109 105 102 98 96 96 99 100 101 102 101 99 100 103 106 106 110 114 118 122 125 126 126 125 120 111 105 100 95 111 119
118 126 126 123 123 122 121 121 120 119 120 117 114 110 108 105 99 98 100 101 103 105 106 105 106 108 110 111 117 123 131 136 137 141 142 131 126 119 111 104 105 113 116
123 131 129 128 126 126 124 124 123 122 123 122 119 116 114 111 106 102 103 103 102 105 108 109 108 112 116 118 124 130 141 151 156 163 166 143 130 127 121 115 115 120 121
129 128 128 133 131 130 129 128 129 129 128 127 125 122 119 115 113 112 112 111 106 106 108 111 109 110 118 124 128 138 150 168 183 197 152 125 120 131 130 130 130 132 132
126 126 133 137 136 135 135 134 135 135 134 133 130 127 126 124 122 121 119 118 114 111 111 112 113 114 118 127 136 147 163 182 206 203 141 132 130 141 144 145 147 144 142
125 128 136 140 139 139 140 139 140 140 138 138 136 134 134 132 129 128 123 122 119 117 117 117 116 119 123 138 152 167 184 205 228 189 136 128 141 149 151 154 153 151 154
127 129 136 142 143 144 144 144 144 144 143 143 145 143 142 142 139 135 130 126 125 124 124 127 129 136 137 154 180 201 207 231 229 160 135 128 148 154 155 157 155 159 162
128 131 143 147 148 148 146 146 147 148 148 149 151 153 155 156 155 148 142 139 137 137 138 138 140 151 155 175 211 231 238 243 264 196 146 136 153 156 161 162 160 161 167
135 138 146 150 154 158 154 152 153 155 157 159 162 169 169 169 169 164 158 152 149 149 153 157 163 172 184 203 223 239 248 254 225 176 126 141 153 156 163 169 166 164 168
139 141 150 151 153 159 156 153 158 162 167 168 175 180 180 186 178 175 160 151 157 163 172 179 189 198 209 222 230 240 254 242 187 141 126 141 154 158 161 168 169 170 173
150 147 149 152 155 161 151 149 164 169 166 180 175 176 190 192 174 160 151 158 167 174 184 198 208 216 225 223 219 225 241 233 181 142 140 147 156 162 166 171 175 178 179
157 153 151 149 154 156 141 151 164 166 158 179 171 173 188 189 166 152 150 161 175 185 194 192 205 218 220 211 206 209 221 232 166 142 147 155 159 166 172 179 182 185 184
159 161 154 150 153 152 144 156 160 161 158 167 163 179 186 183 176 155 160 170 182 188 193 190 210 217 226 233 237 235 223 217 132 129 147 158 162 171 179 185 189 190 190
156 157 154 147 142 139 139 163 160 156 158 159 163 177 183 179 167 158 177 177 194 185 180 190 228 237 224 244 267 264 277 251 144 140 146 168 172 178 184 191 193 196 198
150 152 149 145 141 139 148 164 155 162 159 166 166 172 184 178 165 168 179 185 220 192 173 180 193 219 245 253 273 284 295 301 149 153 159 173 180 182 188 193 196 200 202
147 145 147 151 149 154 164 182 170 172 171 172 164 167 176 183 172 165 182 190 210 187 170 195 209 199 219 226 228 245 257 261 243 175 174 170 179 188 193 197 201 201 202
151 150 161 168 156 161 170 184 179 179 170 169 163 166 174 180 177 172 193 192 183 175 179 196 216 213 223 245 238 243 235 208 215 214 203 189 181 185 192 197 199 201 202
152 153 161 156 157 170 173 185 188 173 174 174 169 170 175 183 183 190 202 175 179 184 200 214 190 218 230 243 243 228 242 214 205 222 211 207 183 183 179 189 197 202 203
149 152 158 157 160 162 167 179 190 183 182 190 178 169 169 183 192 199 194 177 193 192 203 209 192 205 230 235 255 241 225 226 212 212 217 208 192 200 193 189 187 202 204
150 157 164 167 160 159 173 180 187 192 191 191 186 167 168 185 194 195 192 187 201 199 205 206 204 220 230 222 253 267 237 222 213 213 218 208 204 209 197 193 190 188 194
163 168 168 169 162 170 184 185 190 187 187 182 176 155 172 186 197 195 184 199 196 204 213 220 215 230 245 208 196 244 267 240 234 221 206 202 205 209 206 205 187 185 192
168 175 175 169 167 175 176 180 193 174 180 181 171 168 177 184 194 204 190 202 204 198 208 219 216 216 233 234 204 209 239 242 248 228 221 204 191 200 209 206 194 193 197
169 170 165 166 169 172 175 187 193 193 195 191 179 172 173 186 191 199 199 201 205 211 204 221 201 219 223 232 232 226 238 276 259 294 276 222 206 207 213 218 205 198 199
159 159 167 166 169 168 179 190 196 202 198 184 176 167 177 187 193 198 197 200 202 215 207 226 202 210 220 231 233 227 238 241 229 228 258 259 243 224 215 222 219 204 202
153 152 146 153 167 174 185 190 196 199 195 190 184 181 186 186 190 196 200 194 197 206 207 217 210 218 223 229 248 253 234 225 231 227 242 249 246 240 227 213 210 208 202